Regional Weather Roundup
Issued by NWS Spokane, WA

Home | Current Version | Previous Version | Text Only | Print | Product List | Glossary On
Versions: 1 2 3 4 5 6 7 8 9 10 11 12 13 14 15 16 17 18 19 20 21 22 23 24 25 26 27 28 29 30 31 32 33 34 35 36 37 38 39 40 41 42 43 44 45 46 47 48 49 50
695
NZUS01 KOTX 091225
RWROTX

Eastern Washington/Northern Idaho Roundup
National Weather Service, Spokane WA
400 AM PST FRI DEC 09 2016

Note: "fair" indicated few or no clouds below 12,000 feet with no
significant weather and/or obstructions to visibility.

...Northeast Washington and Northern Idaho Panhandle...

CITY           SKY/WX    TMP DP  RH WIND       PRES   REMARKS
Spokane Intl   FLURRIES  17  12  80 NE8       30.12F WCI   7
Spokane Downto FLURRIES  20  12  71 E6        30.17S WCI  12
Coeur d Alene  LGT SNOW  16  10  79 N14       30.16S WCI   1
Deer Park      FLURRIES  17   6  62 NE12      30.16R WCI   4
Sandpoint      PTCLDY    18   1  49 NE15G23   30.21S WCI   3
Bonners Ferry  CLOUDY    14   1  57 N3        30.24F

...Southeast Washington and southern Idaho Panhandle...

CITY           SKY/WX    TMP DP  RH WIND       PRES   REMARKS
Walla Walla    CLOUDY    21  19  92 SE6       30.18F FOG     WCI  13
Pullman/Moscow CLOUDY    23  19  85 E8        30.10R WCI  14
Lewiston       CLOUDY    24  22  91 CALM      30.17R
Lowell           N/A     25  19  78 CALM      30.22R
Grangeville    CLOUDY    21  19  93 CALM      30.06S

...Columbia Basin...

CITY           SKY/WX    TMP DP  RH WIND       PRES   REMARKS
Ephrata        CLOUDY    22  13  68 N7        30.19F WCI  13
Moses Lake     CLOUDY    22  16  78 N9        30.21S WCI  12
Pasco          CLOUDY    25  22  88 NW7       30.25F WCI  17
Richland       CLOUDY    26  22  84 NW7       30.25F WCI  19
Hermiston      CLOUDY    24  20  84 CALM      30.22F
Pendleton      CLOUDY    19  16  88 CALM      30.15F FOG

...East Slopes Cascades...

CITY           SKY/WX    TMP DP  RH WIND       PRES   REMARKS
The Dalles     LGT SNOW  24  22  91 CALM      30.24F FOG
Yakima         CLOUDY    23  18  81 W6        30.20F WCI  16
Ellensburg     FLURRIES  19  14  81 N5        30.14F WCI  12
Stampede Pass  LGT SNOW  11  11 100 E8        29.94S FOG     WCI  -1
Wenatchee      CLOUDY    21  19  92 CALM      30.20F
Omak           CLOUDY    18  14  84 N8        30.23S WCI   8
Chelan           N/A     20  12  73 NW6         N/A  WCI  12
Sunnyside      CLOUDY    22  19  91 CALM      30.22F

...Southern British Columbia...

CITY           SKY/WX    TMP DP  RH WIND       PRES   REMARKS
Penticton      LGT SNOW  18  14  86 CALM      30.24F
Cranbrook      PTCLDY    -6 -11  77 VRB2      30.26S
Osoyoos          N/A     19  18  93 SE2         N/A
Creston          N/A     12   0  57 E9          N/A  WCI   0

...Western Montana...

CITY           SKY/WX    TMP DP  RH WIND       PRES   REMARKS
Kalispell      CLOUDY     4  -7  60 N16       30.23R WCI -15
Libby            N/A      9   3  78 NW3       30.25S
Missoula       LGT SNOW  12   7  80 E5        30.17S WCI   4

...Neighboring Cities...

CITY           SKY/WX    TMP DP  RH WIND       PRES   REMARKS
Seattle        FLURRIES  33  28  81 E13       29.97S WCI  24
Portland       FRZ RAIN  32  28  85 SE16      30.06R WCI  21
Boise          CLOUDY    26  23  88 N3        30.14F
Great Falls    LGT SNOW  -3  -8  79 N5        30.28F WCI -13
Calgary        CRYSTALS  -8 -13  77 S8        30.29F WCI -23



USA.gov is the U.S. government's official web portal to all federal, state and local government web resources and services.